Parsons, KS

7:00 PM CDT on October 14, 2019 (GMT -0500)
Tri-City

Weather History for KPPF - September, 2019

Change the Weather History Date:

Thursday, September 19, 2019

  Actual Average Record
Temperature  
Mean Temperature 80 °F -  
Max Temperature 91 °F 80 °F 100 °F (1954)
Min Temperature 69 °F 58 °F 38 °F (1991)
Cooling Degree Days 15    
Growing Degree Days 30 (Base 50)    
Moisture  
Dew Point 71 °F    
Average Humidity 75    
Maximum Humidity 97    
Minimum Humidity 52    
Precipitation  
Precipitation 0.00 in - - ()
Sea Level Pressure  
Sea Level Pressure 29.96 in    
Wind  
Wind Speed 2 mph ()    
Max Wind Speed 8 mph    
Max Gust Speed -    
Visibility 9.6 miles    
Events      
Averages and records for this station are not official NWS values.
T = Trace of Precipitation, MM = Missing Value Source: Averaged Metar Reports

Daily Weather History Graph

Daily Weather History Graph

Search for Another Location

Airport or City:

Astronomy

Sep. 19, 2019 Rise Set
Actual Time 7:07 AM CDT 7:23 PM CDT
Civil Twilight 6:41 AM CDT 7:49 PM CDT
Nautical Twilight 6:10 AM CDT 8:20 PM CDT
Astronomical Twilight 5:39 AM CDT 8:51 PM CDT
Moon 10:40 PM CDT (9/19) 12:05 PM CDT (9/19)
Length of Visible Light 13h 08m
Length of Day
12h 16m
Waning Gibbous, 74% of the Moon is Illuminated
Sep 19
Waning Gibbous
Sep 21
Last Quarter
Sep 28
New
Oct 5
First Quarter
Oct 13
Full

Hourly Weather History & Observations

Time (CDT) Temp. Heat Index Dew Point Humidity Pressure Visibility Wind Dir Wind Speed Gust Speed Precip Events Conditions
12:52 AM 73.9 °F - 71.1 °F 91% 29.95 in 10.0 mi Calm Calm - N/A   Clear
1:52 AM 73.0 °F - 71.1 °F 93% 29.95 in 10.0 mi Calm Calm - N/A   Clear
2:52 AM 75.9 °F - 70.0 °F 82% 29.94 in 10.0 mi SE 3.5 mph - N/A   Partly Cloudy
3:52 AM 75.0 °F - 69.1 °F 82% 29.94 in 10.0 mi SSE 3.5 mph - N/A   Clear
4:52 AM 70.0 °F - 69.1 °F 97% 29.95 in 10.0 mi Calm Calm - N/A   Clear
5:52 AM 71.1 °F - 69.1 °F 93% 29.95 in 10.0 mi Calm Calm - N/A   Clear
6:52 AM 69.1 °F - 68.0 °F 96% 29.96 in 5.0 mi Calm Calm - N/A   Clear
7:52 AM 71.1 °F - 70.0 °F 96% 29.98 in 7.0 mi Calm Calm - N/A   Clear
8:52 AM 77.0 °F - 71.1 °F 82% 29.99 in 10.0 mi SSE 3.5 mph - N/A   Clear
9:52 AM 81.0 °F 85.8 °F 73.0 °F 77% 30.00 in 10.0 mi SSE 3.5 mph - N/A   Clear
10:52 AM 84.9 °F 92.1 °F 73.9 °F 69% 30.00 in 10.0 mi Calm Calm - N/A   Clear
11:52 AM 87.1 °F 94.5 °F 73.0 °F 63% 30.00 in 10.0 mi Variable 3.5 mph - N/A   Clear
12:52 PM 90.0 °F 99.0 °F 73.9 °F 59% 29.99 in 10.0 mi Variable 4.6 mph - N/A   Clear
1:52 PM 90.0 °F 97.9 °F 73.0 °F 57% 29.97 in 10.0 mi Variable 6.9 mph - N/A   Clear
2:52 PM 91.0 °F 98.2 °F 72.0 °F 53% 29.96 in 10.0 mi Variable 6.9 mph - N/A   Partly Cloudy
3:52 PM 91.0 °F 97.6 °F 71.1 °F 52% 29.94 in 10.0 mi SSE 8.1 mph - N/A   Clear
4:52 PM 90.0 °F 96.4 °F 71.1 °F 54% 29.93 in 10.0 mi SE 5.8 mph - N/A   Clear
5:52 PM 88.0 °F 94.7 °F 72.0 °F 59% 29.93 in 10.0 mi SE 5.8 mph - N/A   Partly Cloudy
6:52 PM 84.9 °F 90.7 °F 72.0 °F 65% 29.93 in 9.0 mi Calm Calm - N/A   Clear
7:52 PM 81.0 °F 84.4 °F 70.0 °F 69% 29.93 in 10.0 mi SSE 4.6 mph - N/A   Clear
8:52 PM 78.1 °F - 70.0 °F 76% 29.94 in 10.0 mi Calm Calm - N/A   Clear
9:52 PM 77.0 °F - 70.0 °F 79% 29.94 in 10.0 mi Variable 3.5 mph - N/A   Clear
10:52 PM 75.0 °F - 69.1 °F 82% 29.96 in 10.0 mi Calm Calm - N/A   Clear
11:52 PM 75.0 °F - 69.1 °F 82% 29.96 in 10.0 mi Calm Calm - N/A   Clear